{"data":{"norad_id":62779,"intl_designator":"2025-015X","name":"STARLINK-33568","alt_names":[],"object_type":"PAYLOAD","status":"ACTIVE","operator":null,"country":"US","launch_date":"2025-01-21","launch_site_code":"AFWTR","launch_vehicle":null,"mission":null,"orbit_class":"UNKNOWN","rcs_meters":null,"size_class":null,"mass_kg":null,"dimensions":null,"purposes":["comms"],"wikipedia_slug":null,"has_3d_model":false,"image_url":null,"decayed_at":null,"tle_current":{"epoch":"2026-09-21T20:10:07.283712Z","epoch_age_seconds":55536,"freshness":"FRESH","line1":"1 62779U 25015X   26264.84036208  .00015622  00000+0  47248-3 0  9998","line2":"2 62779  53.1577 127.7436 0001134  87.2294 272.8838 15.34403647 94404","mean_motion":15.34403647,"eccentricity":0.0001134,"inclination_deg":53.1577,"raan_deg":127.7436,"arg_perigee_deg":87.2294,"mean_anomaly_deg":272.8838,"bstar":0.00047248,"rev_number":9440,"period_min":93.847535022184,"perigee_km":461.91665052198,"apogee_km":463.46815063003,"semimajor_km":6840.829400576,"source":"CELESTRAK","updated_at":"2026-09-22T09:00:49.665044Z"}}}